Location: Northcutt
(34.7304°N, 84.4305°W)
Time: 04:05:16
(UTC+00:00)

Vanguard 2 - Pass Details

Date: 06 October 2022
Orbit: 553 x 2933 km, 32.9° (Epoch: 04 December)

Event Time Altitude Azimuth Distance (km) Brightness Sun altitude
Rises 02:03:55 0° 276° (W) 6,719 13.3 -34.8°
Reaches altitude 10° 02:11:13 10° 258° (WSW) 5,760 12.5 -36.2°
Maximum altitude 02:19:51 16° 228° (SW) 5,120 11.9 -37.8°
Drops below altitude 10° 02:27:53 10° 197° (SSW) 5,248 11.7 -39.3°
Enters shadow 02:32:05 - 183° (S) 5,607 11.7 -40.1°
Sets 02:34:06 0° 178° (S) 5,843 - -40.5°
